Weather History for Casper, WY

Change the Weather History Date:

Friday, November 8, 2013

  Actual Average Record
Temperature  
Mean Temperature 41 °F 37 °F  
Max Temperature 56 °F 49 °F 70 °F (1999)
Min Temperature 25 °F 25 °F -8 °F (1966)
Degree Days  
Heating Degree Days 24 28  
Month to date heating degree days 237 213  
Since 1 July heating degree days 1126 1112  
Cooling Degree Days 0 0  
Month to date cooling degree days 0 0  
Year to date cooling degree days 618 422  
Moisture  
Dew Point 21 °F    
Average Humidity 48    
Maximum Humidity 75    
Minimum Humidity 20    
Precipitation  
Precipitation 0.00 in 0.03 in 0.58 in (1983)
Month to date precipitation 0.01 0.24  
Year to date precipitation 13.71 11.51  
Snow  
Snow 0.00 in 0.30 in - ()
Month to date snowfall 0.1 2.5  
Since 1 July snowfall 21.3 11.7  
Since 1 September snowfall 21.3 11.7  
Snow Depth 0.00 in    
Sea Level Pressure  
Sea Level Pressure 29.83 in    
Wind  
Wind Speed 15 mph (West)    
Max Wind Speed 30 mph    
Max Gust Speed 38 mph    
Visibility 10 miles    
Events      
T = Trace of Precipitation, MM = Missing Value Source: NWS Daily Summary

Daily Weather History Graph

Daily Weather History Graph

Search for Another Location

Airport:

Trip Planner

Search our weather history database for the weather conditions in past years. The results will help you decide how hot, cold, wet, or windy it might be!

Date:

Astronomy

Nov. 08, 2013 Rise Set
Actual Time 6:49 AM MST 4:49 PM MST
Civil Twilight 6:19 AM MST 5:19 PM MST
Nautical Twilight 5:45 AM MST 5:53 PM MST
Astronomical Twilight 5:12 AM MST 6:26 PM MST
Moon 11:47 AM MST (11/8) 10:13 PM MST (11/8)
Length of Visible Light 10h 59m
Length of Day
9h 59m
Waxing Crescent, 34% of the Moon is Illuminated
Nov 8
Waxing Crescent
Nov 9
First Quarter
Nov 17
Full
Nov 25
Last Quarter
Dec 2
New

Hourly Weather History & Observations

Time (MST) Temp. Windchill Dew Point Humidity Pressure Visibility Wind Dir Wind Speed Gust Speed Precip Events Conditions
12:53 AM 46.0 °F 37.4 °F 23.0 °F 40% 29.76 in 10.0 mi SW 25.3 mph 34.5 mph N/A   Clear
1:53 AM 46.0 °F 37.8 °F 21.9 °F 39% 29.75 in 10.0 mi SW 23.0 mph 29.9 mph N/A   Partly Cloudy
2:53 AM 46.0 °F 38.0 °F 23.0 °F 40% 29.73 in 10.0 mi SSW 21.9 mph 29.9 mph N/A   Overcast
3:53 AM 45.0 °F 36.2 °F 21.9 °F 40% 29.72 in 10.0 mi SSW 24.2 mph 33.4 mph N/A   Clear
4:53 AM 45.0 °F 35.6 °F 21.9 °F 40% 29.71 in 10.0 mi SSW 27.6 mph 38.0 mph N/A   Clear
5:53 AM 44.1 °F 34.8 °F 21.0 °F 40% 29.73 in 10.0 mi SW 25.3 mph 32.2 mph N/A   Clear
6:53 AM 45.0 °F 37.4 °F 21.9 °F 40% 29.74 in 10.0 mi SW 18.4 mph 29.9 mph N/A   Overcast
7:53 AM 46.0 °F 39.0 °F 23.0 °F 40% 29.78 in 10.0 mi SW 17.3 mph - N/A   Overcast
8:53 AM 46.9 °F - 26.1 °F 44% 29.80 in 10.0 mi West 12.7 mph - N/A   Overcast
9:53 AM 48.9 °F - 26.1 °F 41% 29.79 in 10.0 mi West 15.0 mph 21.9 mph N/A   Overcast
10:53 AM 51.1 °F - 24.1 °F 35% 29.79 in 10.0 mi West 24.2 mph 31.1 mph N/A   Overcast
11:53 AM 52.0 °F - 24.1 °F 34% 29.77 in 10.0 mi WNW 20.7 mph 27.6 mph N/A   Overcast
12:53 PM 54.0 °F - 21.0 °F 28% 29.75 in 10.0 mi WNW 21.9 mph 27.6 mph N/A   Scattered Clouds
1:53 PM 55.9 °F - 18.0 °F 23% 29.76 in 10.0 mi WNW 17.3 mph 27.6 mph N/A   Clear
2:53 PM 55.0 °F - 15.1 °F 21% 29.77 in 10.0 mi West 19.6 mph 26.5 mph N/A   Clear
3:53 PM 53.1 °F - 14.0 °F 21% 29.80 in 10.0 mi WNW 11.5 mph 19.6 mph N/A   Clear
4:53 PM 39.9 °F 33.9 °F 19.9 °F 45% 29.86 in 10.0 mi NNW 9.2 mph - N/A   Clear
5:53 PM 35.1 °F - 19.0 °F 52% 29.91 in 10.0 mi Calm Calm - N/A   Clear
6:53 PM 33.1 °F - 19.0 °F 56% 29.95 in 10.0 mi Calm Calm - N/A   Mostly Cloudy
7:53 PM 34.0 °F - 19.9 °F 56% 29.95 in 10.0 mi Calm Calm - N/A   Partly Cloudy
8:53 PM 28.0 °F 22.8 °F 19.0 °F 69% 29.98 in 10.0 mi NW 4.6 mph - N/A   Clear
9:53 PM 28.0 °F 24.2 °F 19.0 °F 69% 30.00 in 10.0 mi Variable 3.5 mph - N/A   Clear
10:53 PM 26.1 °F 21.9 °F 19.0 °F 75% 30.02 in 10.0 mi ENE 3.5 mph - N/A   Partly Cloudy
11:53 PM 26.1 °F 19.4 °F 19.9 °F 78% 30.02 in 10.0 mi WNW 5.8 mph - N/A   Overcast